VOI282 MMMX-MMPR

Flight info

Callsign VOI282
Flight time N/A
Altitude 38000
Route SEBON3A SEBON UT124 GDL UJ14N NOTUP NOTUP1B
Aircraft A321/M-SDE3FGHIRWY/LB1

Departure

Time 2026-04-30 22:47
Airport Mexico City Benito Juárez International Airport (MMMX)

Arrival

Time N/A
Airport Puerto Vallarta International Airport (MMPR)
Time Latitude Longitude Altitude Speed Heading
2026-04-30 22:42 19.43143 -99.08601 7349 ft 3 kts 238°
2026-04-30 22:43 19.43089 -99.08699 7349 ft 8 kts 241°
2026-04-30 22:43 19.43043 -99.08783 7349 ft 4 kts 239°
2026-04-30 22:44 19.43020 -99.08823 7350 ft 2 kts 239°
2026-04-30 22:45 19.42866 -99.09042 7350 ft 11 kts 208°
2026-04-30 22:45 19.42759 -99.09074 7350 ft 5 kts 123°
2026-04-30 22:46 19.42768 -99.09035 7350 ft 0 kts 60°
2026-04-30 22:47 19.44051 -99.06756 7377 ft 188 kts 60°
2026-04-30 22:47 19.45464 -99.04234 8344 ft 201 kts 61°
2026-04-30 22:48 19.46847 -99.01801 9446 ft 196 kts 61°
2026-04-30 22:49 19.49113 -98.97768 10034 ft 227 kts 61°
2026-04-30 22:49 19.48352 -98.92891 10566 ft 268 kts 144°
2026-04-30 22:50 19.42337 -98.95894 12323 ft 288 kts 242°
2026-04-30 22:51 19.40450 -98.99638 13266 ft 293 kts 242°
2026-04-30 22:51 19.38477 -99.03449 14263 ft 297 kts 241°
2026-04-30 22:52 19.37542 -99.05408 14758 ft 300 kts 248°
2026-04-30 22:52 19.36519 -99.09764 15469 ft 317 kts 262°
2026-04-30 22:53 19.35859 -99.14504 16280 ft 332 kts 263°
2026-04-30 22:53 19.35169 -99.19383 17350 ft 338 kts 262°
2026-04-30 22:53 19.34811 -99.21851 17886 ft 341 kts 262°
2026-04-30 22:54 19.34085 -99.26807 18924 ft 344 kts 262°
2026-04-30 22:55 19.32974 -99.34354 20425 ft 349 kts 262°
2026-04-30 22:55 19.32589 -99.39476 21262 ft 352 kts 276°
2026-04-30 22:56 19.33741 -99.44640 21383 ft 369 kts 288°
2026-04-30 22:56 19.36038 -99.52481 21385 ft 373 kts 288°
2026-04-30 22:57 19.37506 -99.57701 21380 ft 372 kts 285°
2026-04-30 22:57 19.37680 -99.63235 21836 ft 380 kts 267°
2026-04-30 22:58 19.37340 -99.68793 22842 ft 380 kts 267°
2026-04-30 22:59 19.36886 -99.77209 24183 ft 385 kts 267°
2026-04-30 22:59 19.36439 -99.85747 25435 ft 390 kts 267°